TimeCDT,TemperatureF,Dew PointF,Humidity,Sea Level PressureIn,VisibilityMPH,Wind Direction,Wind SpeedMPH,Gust SpeedMPH,PrecipitationIn,Events,Conditions,WindDirDegrees,DateUTC
12:53 AM,46.9,34.0,61,30.24,10.0,NNW,4.6,-,N/A,,Clear,340,2013-05-12 05:53:00
1:53 AM,44.1,36.0,73,30.25,10.0,Calm,Calm,-,N/A,,Clear,0,2013-05-12 06:53:00
2:53 AM,44.1,35.1,71,30.24,10.0,NE,3.5,-,N/A,,Clear,50,2013-05-12 07:53:00
3:53 AM,41.0,36.0,82,30.24,10.0,Calm,Calm,-,N/A,,Clear,0,2013-05-12 08:53:00
4:53 AM,37.9,36.0,93,30.25,10.0,East,3.5,-,N/A,,Clear,80,2013-05-12 09:53:00
5:53 AM,37.9,35.1,89,30.25,10.0,Calm,Calm,-,N/A,Fog,Patches of Fog,0,2013-05-12 10:53:00
6:53 AM,37.9,36.0,93,30.28,10.0,Calm,Calm,-,N/A,Fog,Patches of Fog,0,2013-05-12 11:53:00
7:53 AM,46.4,39.2,76,30.29,10.0,Calm,Calm,-,N/A,,Clear,0,2013-05-12 12:53:00
8:53 AM,54.0,32.0,43,30.30,10.0,Variable,4.6,-,N/A,,Clear,0,2013-05-12 13:53:00
9:53 AM,57.2,24.8,29,30.30,10.0,Variable,4.6,-,N/A,,Clear,0,2013-05-12 14:53:00
10:53 AM,59.0,26.1,28,30.30,10.0,ENE,5.8,-,N/A,,Clear,70,2013-05-12 15:53:00
11:53 AM,60.1,28.9,31,30.29,10.0,NNE,5.8,-,N/A,,Partly Cloudy,20,2013-05-12 16:53:00
12:53 PM,61.0,33.1,35,30.27,10.0,North,5.8,-,N/A,,Mostly Cloudy,360,2013-05-12 17:53:00
1:53 PM,63.0,34.0,34,30.26,10.0,North,5.8,-,N/A,,Clear,360,2013-05-12 18:53:00
2:53 PM,64.0,34.0,33,30.23,10.0,Variable,3.5,-,N/A,,Clear,0,2013-05-12 19:53:00
3:53 PM,61.0,36.0,39,30.24,10.0,Variable,4.6,-,N/A,,Overcast,0,2013-05-12 20:53:00
4:53 PM,61.0,35.1,38,30.21,10.0,SW,3.5,-,N/A,,Mostly Cloudy,220,2013-05-12 21:53:00
5:53 PM,62.1,37.9,41,30.18,10.0,South,6.9,-,N/A,,Partly Cloudy,190,2013-05-12 22:53:00
6:53 PM,60.1,39.0,46,30.18,10.0,SW,8.1,-,N/A,,Mostly Cloudy,220,2013-05-12 23:53:00
7:53 PM,57.0,41.0,55,30.18,10.0,Calm,Calm,-,N/A,,Mostly Cloudy,0,2013-05-13 00:53:00
8:53 PM,55.9,39.9,55,30.19,10.0,Calm,Calm,-,N/A,,Clear,0,2013-05-13 01:53:00
9:53 PM,51.1,43.0,74,30.19,10.0,Calm,Calm,-,N/A,,Clear,0,2013-05-13 02:53:00
10:53 PM,48.0,42.1,80,30.19,10.0,East,5.8,-,N/A,,Clear,80,2013-05-13 03:53:00
11:53 PM,48.9,41.0,74,30.17,10.0,East,5.8,-,N/A,,Clear,100,2013-05-13 04:53:00